View from above orbital plane
|
View from above satellite
|
Ground track
|
The orbit data is extracted from the following two-line orbital elements,
1 27386U 02009A 21107.00837657 .00000027 00000-0 22413-4 0 9999
2 27386 98.1480 104.2078 0001376 87.5129 336.1726 14.38021127 2244
Epoch (UTC): | 17 April 2021 00:12:03 |
Eccentricity: | 0.0001376 |
inclination: | 98.1480° |
perigee height: | 764 km |
apogee height: | 766 km |
right ascension of ascending node: | 104.2078° |
argument of perigee: | 87.5129° |
revolutions per day: | 14.38021127 |
mean anomaly at epoch: | 336.1726° |
orbit number at epoch: | 224 |
The dashed part of the orbit path shows where the satellite is in the earth's shadow,
|
|